Lincoln, NE

12:45 AM CDT on September 25, 2016 (GMT -0500)
Lincoln Municipal

Weather History for KLNK - June, 2014

Change the Weather History Date:

Saturday, June 21, 2014

  Actual Average Record
Temperature  
Mean Temperature 77 °F 74 °F  
Max Temperature 88 °F 86 °F 107 °F (1988)
Min Temperature 65 °F 63 °F 43 °F (1972)
Degree Days  
Heating Degree Days 0 0  
Month to date heating degree days 2 13  
Since 1 June heating degree days 2 13  
Since 1 July heating degree days 6484 6053  
Cooling Degree Days 12 10  
Month to date cooling degree days 179 146  
Year to date cooling degree days 339 225  
Since 1 June cooling degree days 179 146  
Growing Degree Days 26 (Base 50)    
Moisture  
Dew Point 65 °F    
Average Humidity 69    
Maximum Humidity 87    
Minimum Humidity 51    
Precipitation  
Precipitation 0.64 in 0.15 in 2.11 in (1991)
Month to date precipitation 4.97 3.08  
Year to date precipitation 14.72 13.42  
Snow  
Snow 0.00 in 0.00 in - ()
Month to date snowfall 0.0 0.0  
Since 1 July snowfall 18.2 25.9  
Snow Depth 0.00 in    
Sea Level Pressure  
Sea Level Pressure 29.94 in    
Wind  
Wind Speed 9 mph (ESE)    
Max Wind Speed 25 mph    
Max Gust Speed 38 mph    
Visibility 8 miles    
Events Fog , Rain , Thunderstorm    
T = Trace of Precipitation, MM = Missing Value Source: NWS Daily Summary

Daily Weather History Graph

Daily Weather History Graph

Search for Another Location

Airport or City:

Trip Planner

Search our weather history database for the weather conditions in past years. The results will help you decide how hot, cold, wet, or windy it might be!

Date:

Astronomy

Jun. 21, 2014 Rise Set
Actual Time 5:55 AM CDT 9:02 PM CDT
Civil Twilight 5:22 AM CDT 9:35 PM CDT
Nautical Twilight 4:39 AM CDT 10:18 PM CDT
Astronomical Twilight 3:48 AM CDT 11:09 PM CDT
Moon 2:10 AM CDT (6/21) 3:40 PM CDT (6/21)
Length of Visible Light 16h 13m
Length of Day
15h 06m
Waning Crescent, 30% of the Moon is Illuminated
Jun 21
Waning Crescent
Jun 27
New
Jul 5
First Quarter
Jul 12
Full
Jul 18
Last Quarter

Hourly Weather History & Observations

Time (CDT) Temp. Heat Index Dew Point Humidity Pressure Visibility Wind Dir Wind Speed Gust Speed Precip Events Conditions
12:09 AM 72.0 °F - 63.0 °F 73% 30.02 in 10.0 mi NNE 16.1 mph 33.4 mph N/A Thunderstorm Thunderstorm
12:14 AM 72.0 °F - 64.0 °F 76% 30.08 in 2.5 mi NW 36.8 mph 48.3 mph N/A Thunderstorm Unknown
12:16 AM 70.0 °F - 64.0 °F 81% 30.06 in 1.0 mi NW 43.7 mph 58.7 mph 0.00 in Rain , Thunderstorm Light Thunderstorms and Rain
12:21 AM 66.9 °F - 64.0 °F 90% 30.08 in 0.5 mi NNE 26.5 mph 58.7 mph 0.12 in Fog , Rain , Thunderstorm Heavy Thunderstorms and Rain
12:29 AM 64.9 °F - 62.1 °F 90% 30.10 in 0.5 mi North 28.8 mph 36.8 mph 0.56 in Fog , Rain , Thunderstorm Heavy Thunderstorms and Rain
12:37 AM 64.0 °F - 62.1 °F 93% 30.08 in 1.0 mi North 24.2 mph 33.4 mph 0.94 in Rain , Thunderstorm Heavy Thunderstorms and Rain
12:45 AM 64.0 °F - 61.0 °F 90% 30.07 in 3.0 mi North 18.4 mph 32.2 mph 1.01 in Rain , Thunderstorm Thunderstorms and Rain
12:50 AM 64.4 °F - 60.8 °F 88% 30.07 in 5.0 mi NNE 19.6 mph - 1.03 in Rain , Thunderstorm Thunderstorms and Rain
12:54 AM 64.0 °F - 61.0 °F 90% 30.04 in 5.0 mi NE 18.4 mph - 1.05 in Rain , Thunderstorm Thunderstorms and Rain
1:11 AM 64.9 °F - 62.1 °F 90% 30.05 in 10.0 mi NE 11.5 mph - 0.01 in Rain , Thunderstorm Light Rain
1:22 AM 66.0 °F - 62.1 °F 87% 30.05 in 10.0 mi NE 8.1 mph - 0.01 in Rain Light Rain
1:54 AM 66.0 °F - 62.1 °F 87% 30.02 in 10.0 mi NNE 4.6 mph - 0.01 in Rain Light Rain
2:54 AM 66.0 °F - 63.0 °F 90% 29.99 in 6.0 mi NE 12.7 mph - 0.17 in Rain Light Rain
3:34 AM 66.2 °F - 62.6 °F 88% 30.01 in 10.0 mi NE 18.4 mph 34.5 mph N/A Rain Light Rain
3:54 AM 66.9 °F - 63.0 °F 87% 30.00 in 9.0 mi WSW 4.6 mph - 0.16 in Rain Light Rain
4:20 AM 66.9 °F - 63.0 °F 87% 30.06 in 5.0 mi SSW 13.8 mph - 0.04 in Rain , Thunderstorm Rain
4:35 AM 66.0 °F - 63.0 °F 90% 30.05 in 4.0 mi South 10.4 mph - 0.11 in Rain Rain
4:54 AM 66.0 °F - 63.0 °F 90% 30.02 in 6.0 mi SSW 9.2 mph - 0.19 in Rain Rain
5:54 AM 66.0 °F - 62.1 °F 87% 29.93 in 10.0 mi SSE 15.0 mph - 0.11 in Rain Light Rain
6:54 AM 68.0 °F - 61.0 °F 78% 29.83 in 10.0 mi South 23.0 mph - 0.00 in   Clear
7:54 AM 70.0 °F - 62.1 °F 76% 29.88 in 10.0 mi Variable 3.5 mph - N/A   Clear
8:54 AM 73.9 °F - 62.1 °F 66% 29.87 in 10.0 mi SSW 6.9 mph - N/A   Partly Cloudy
9:54 AM 75.9 °F - 62.1 °F 62% 29.87 in 10.0 mi WSW 5.8 mph - N/A   Clear
10:54 AM 77.0 °F - 64.0 °F 64% 29.90 in 10.0 mi Calm Calm - N/A   Clear
11:54 AM 81.0 °F 83.3 °F 66.9 °F 62% 29.92 in 10.0 mi ENE 4.6 mph - N/A   Clear
12:54 PM 84.0 °F 86.5 °F 66.9 °F 56% 29.90 in 10.0 mi SE 5.8 mph - N/A   Clear
1:54 PM 86.0 °F 88.2 °F 66.0 °F 51% 29.88 in 10.0 mi South 10.4 mph - N/A   Clear
2:54 PM 86.0 °F 88.8 °F 66.9 °F 53% 29.87 in 10.0 mi South 5.8 mph - N/A   Clear
3:54 PM 86.0 °F 89.4 °F 68.0 °F 55% 29.86 in 10.0 mi SSE 8.1 mph - N/A   Clear
4:54 PM 88.0 °F 92.9 °F 70.0 °F 55% 29.84 in 10.0 mi SE 8.1 mph - N/A   Partly Cloudy
5:54 PM 88.0 °F 92.9 °F 70.0 °F 55% 29.82 in 10.0 mi SE 12.7 mph - N/A   Clear
6:54 PM 86.0 °F 91.5 °F 71.1 °F 61% 29.81 in 10.0 mi ESE 9.2 mph - N/A   Clear
7:54 PM 84.0 °F 88.4 °F 70.0 °F 63% 29.79 in 10.0 mi ESE 9.2 mph - N/A   Clear
8:54 PM 82.0 °F 86.3 °F 71.1 °F 69% 29.80 in 10.0 mi ESE 13.8 mph - N/A   Clear
9:54 PM 80.1 °F 83.2 °F 70.0 °F 71% 29.81 in 10.0 mi SE 11.5 mph - N/A   Clear
10:54 PM 79.0 °F - 71.1 °F 77% 29.83 in 10.0 mi SE 12.7 mph - N/A   Clear
11:54 PM 80.1 °F 82.9 °F 69.1 °F 69% 29.81 in 10.0 mi ESE 10.4 mph - N/A   Partly Cloudy